Location: Il Ritiro
(43.4167°N, 13.1333°E)
Time: 16:59:04
(UTC+00:00)

Helios 1A - Pass Details

Date: 05 July 2020
Orbit: 587 x 600 km, 98.2° (Epoch: 07 August)

Event Time Altitude Azimuth Distance (km) Brightness Sun altitude
Exits shadow 23:24:57 56° 280° (W) 703 3.3 -23.9°
Drops below altitude 10° 23:28:46 10° 339° (NNW) 1,922 6.4 -23.8°
Sets 23:30:58 0° 343° (NNW) 2,828 7.6 -23.8°
